• In Hungary
  • List of Countries
  • For 7 days
  • Water Temperature
  • Satellite Maps
  • Weather Map
  • News
  • Weather Widgets
  • user-avatar
    Login

    Hourly Weather Cyklady

    Today, 25 September, Tuesday

    Time Temperature Precipitation Wind Pressure Humidity
    00:00 +17°C° 0 mm 2 mps 684 mmHg 84%
    01:00 +16°C° 0 mm 2 mps 684 mmHg 85%
    02:00 +16°C° 0 mm 2 mps 684 mmHg 84%
    03:00 +16°C° 0 mm 2 mps 684 mmHg 83%
    04:00 +16°C° 0 mm 2 mps 684 mmHg 81%
    05:00 +17°C° 0 mm 3 mps 684 mmHg 77%
    06:00 +18°C° 0 mm 3 mps 685 mmHg 72%
    07:00 +19°C° 0 mm 3 mps 685 mmHg 68%
    08:00 +21°C° 0 mm 3 mps 686 mmHg 60%
    09:00 +22°C° 0 mm 3 mps 687 mmHg 53%
    10:00 +24°C° 0 mm 2 mps 687 mmHg 45%
    11:00 +25°C° 0 mm 3 mps 687 mmHg 45%
    12:00 +25°C° 0 mm 3 mps 688 mmHg 44%
    13:00 +25°C° 0 mm 3 mps 688 mmHg 44%
    14:00 +24°C° 0 mm 3 mps 687 mmHg 50%
    15:00 +21°C° 0 mm 3 mps 687 mmHg 56%
    16:00 +19°C° 0 mm 3 mps 687 mmHg 62%
    17:00 +18°C° 0.2 mm 3 mps 687 mmHg 64%
    18:00 +17°C° 0.2 mm 3 mps 687 mmHg 67%
    19:00 +16°C° 0.2 mm 3 mps 687 mmHg 69%
    20:00 +16°C° 0.2 mm 3 mps 688 mmHg 70%
    21:00 +14°C° 0.2 mm 3 mps 688 mmHg 71%
    22:00 +14°C° 0.2 mm 3 mps 688 mmHg 72%
    23:00 +13°C° 0.2 mm 3 mps 688 mmHg 70%

    Tomorrow, 26 September, Wednesday

    Time Temperature Precipitation Wind Pressure Humidity
    00:00 +13°C° 0.2 mm 4 mps 688 mmHg 68%
    01:00 +12°C° 0.2 mm 4 mps 688 mmHg 67%
    02:00 +12°C° 0 mm 4 mps 688 mmHg 66%
    03:00 +11°C° 0 mm 4 mps 688 mmHg 65%
    04:00 +10°C° 0 mm 5 mps 688 mmHg 64%
    05:00 +10°C° 0 mm 5 mps 688 mmHg 62%
    06:00 +10°C° 0 mm 5 mps 688 mmHg 59%
    07:00 +11°C° 0 mm 6 mps 688 mmHg 56%
    08:00 +13°C° 0 mm 6 mps 689 mmHg 54%
    09:00 +13°C° 0 mm 6 mps 689 mmHg 52%
    10:00 +14°C° 0 mm 6 mps 690 mmHg 50%
    11:00 +14°C° 0 mm 6 mps 690 mmHg 49%
    12:00 +14°C° 0 mm 6 mps 689 mmHg 48%
    13:00 +14°C° 0 mm 6 mps 689 mmHg 48%
    14:00 +14°C° 0 mm 6 mps 689 mmHg 47%
    15:00 +13°C° 0 mm 6 mps 689 mmHg 46%
    16:00 +11°C° 0 mm 7 mps 688 mmHg 46%
    17:00 +10°C° 0 mm 7 mps 688 mmHg 47%
    18:00 +10°C° 0 mm 6 mps 689 mmHg 48%
    19:00 +9°C° 0 mm 6 mps 689 mmHg 49%
    20:00 +9°C° 0 mm 6 mps 689 mmHg 51%
    21:00 +9°C° 0 mm 6 mps 689 mmHg 53%
    22:00 +9°C° 0 mm 6 mps 689 mmHg 55%
    23:00 +8°C° 0 mm 6 mps 688 mmHg 58%

    Day after tomorrow, 27 September, Thursday

    Time Temperature Precipitation Wind Pressure Humidity
    00:00 +8°C° 0 mm 6 mps 688 mmHg 61%
    01:00 +8°C° 0 mm 6 mps 688 mmHg 64%
    02:00 +7°C° 0 mm 6 mps 688 mmHg 65%
    03:00 +7°C° 0 mm 6 mps 687 mmHg 67%
    04:00 +7°C° 0 mm 6 mps 687 mmHg 68%
    05:00 +7°C° 0.1 mm 6 mps 687 mmHg 66%
    06:00 +8°C° 0.1 mm 6 mps 687 mmHg 64%
    07:00 +8°C° 0.1 mm 7 mps 687 mmHg 62%
    08:00 +9°C° 0.1 mm 7 mps 687 mmHg 59%
    09:00 +10°C° 0.1 mm 7 mps 687 mmHg 56%
    10:00 +10°C° 0.1 mm 7 mps 687 mmHg 53%
    11:00 +11°C° 0 mm 7 mps 687 mmHg 51%
    12:00 +11°C° 0 mm 7 mps 687 mmHg 50%
    13:00 +13°C° 0 mm 6 mps 687 mmHg 49%
    14:00 +11°C° 0 mm 6 mps 687 mmHg 51%
    15:00 +12°C° 0 mm 5 mps 686 mmHg 53%
    16:00 +10°C° 0 mm 5 mps 686 mmHg 55%
    17:00 +10°C° 0 mm 5 mps 686 mmHg 58%
    18:00 +10°C° 0 mm 4 mps 685 mmHg 60%
    19:00 +10°C° 0 mm 4 mps 685 mmHg 63%
    20:00 +10°C° 0.1 mm 4 mps 685 mmHg 64%
    21:00 +10°C° 0.1 mm 4 mps 685 mmHg 66%
    22:00 +10°C° 0.1 mm 4 mps 685 mmHg 68%
    23:00 +10°C° 0.4 mm 4 mps 684 mmHg 71%

    28 September, Friday

    Time Temperature Precipitation Wind Pressure Humidity
    00:00 +10°C° 0.4 mm 4 mps 684 mmHg 74%
    01:00 +10°C° 0.4 mm 3 mps 684 mmHg 77%
    02:00 +10°C° 1.2 mm 3 mps 683 mmHg 78%
    03:00 +10°C° 1.2 mm 3 mps 683 mmHg 80%
    04:00 +10°C° 1.2 mm 3 mps 682 mmHg 81%
    05:00 +10°C° 0.7 mm 3 mps 683 mmHg 80%
    06:00 +10°C° 0.7 mm 4 mps 683 mmHg 80%
    07:00 +10°C° 0.7 mm 4 mps 683 mmHg 79%
    08:00 +12°C° 0.2 mm 4 mps 683 mmHg 75%
    09:00 +13°C° 0.2 mm 4 mps 683 mmHg 72%
    10:00 +14°C° 0.2 mm 4 mps 683 mmHg 68%
    11:00 +14°C° 0.4 mm 4 mps 683 mmHg 68%
    12:00 +16°C° 0.4 mm 3 mps 683 mmHg 67%
    13:00 +16°C° 0.4 mm 3 mps 683 mmHg 67%
    14:00 +16°C° 0.4 mm 3 mps 682 mmHg 69%
    15:00 +14°C° 0.4 mm 3 mps 682 mmHg 71%
    16:00 +14°C° 0.4 mm 3 mps 682 mmHg 73%
    17:00 +13°C° 0.1 mm 3 mps 681 mmHg 77%
    18:00 +12°C° 0.1 mm 3 mps 681 mmHg 81%
    19:00 +11°C° 0.1 mm 3 mps 681 mmHg 85%
    20:00 +11°C° 0.2 mm 3 mps 681 mmHg 86%
    21:00 +11°C° 0.2 mm 3 mps 681 mmHg 86%
    22:00 +11°C° 0.2 mm 3 mps 681 mmHg 87%
    23:00 +11°C° 0.5 mm 3 mps 680 mmHg 87%

    29 September, Saturday

    Time Temperature Precipitation Wind Pressure Humidity
    00:00 +11°C° 0.5 mm 3 mps 680 mmHg 88%
    01:00 +12°C° 0.5 mm 2 mps 680 mmHg 88%
    02:00 +12°C° 0.2 mm 2 mps 680 mmHg 88%
    03:00 +12°C° 0.2 mm 2 mps 680 mmHg 88%
    04:00 +12°C° 0.2 mm 2 mps 680 mmHg 88%
    05:00 +13°C° 0.1 mm 2 mps 680 mmHg 86%
    06:00 +13°C° 0.1 mm 2 mps 680 mmHg 84%
    07:00 +13°C° 0.1 mm 1 mps 681 mmHg 82%
    08:00 +15°C° 0 mm 1 mps 681 mmHg 76%
    09:00 +16°C° 0 mm 1 mps 681 mmHg 69%
    10:00 +18°C° 0 mm 1 mps 682 mmHg 62%
    11:00 +18°C° 0 mm 2 mps 682 mmHg 60%
    12:00 +18°C° 0 mm 2 mps 682 mmHg 57%
    13:00 +19°C° 0 mm 2 mps 682 mmHg 55%
    14:00 +18°C° 0.1 mm 2 mps 682 mmHg 57%
    15:00 +18°C° 0.1 mm 2 mps 682 mmHg 59%
    16:00 +18°C° 0.1 mm 2 mps 682 mmHg 61%
    17:00 +17°C° 0 mm 2 mps 682 mmHg 66%
    18:00 +16°C° 0 mm 2 mps 682 mmHg 70%
    19:00 +15°C° 0 mm 1 mps 682 mmHg 75%
    20:00 +14°C° 0 mm 1 mps 682 mmHg 77%
    21:00 +14°C° 0 mm 1 mps 682 mmHg 79%
    22:00 +14°C° 0 mm 1 mps 682 mmHg 81%
    23:00 +13°C° 0 mm 1 mps 682 mmHg 82%

    30 September, Sunday

    Time Temperature Precipitation Wind Pressure Humidity
    00:00 +13°C° 0 mm 1 mps 682 mmHg 82%
    01:00 +13°C° 0 mm 1 mps 682 mmHg 83%
    02:00 +13°C° 0 mm 1 mps 682 mmHg 83%
    03:00 +12°C° 0 mm 1 mps 682 mmHg 83%
    04:00 +12°C° 0 mm 1 mps 682 mmHg 83%
    05:00 +13°C° 0 mm 1 mps 683 mmHg 79%
    06:00 +14°C° 0 mm 1 mps 683 mmHg 75%
    07:00 +15°C° 0 mm 1 mps 683 mmHg 70%
    08:00 +18°C° 0 mm 1 mps 684 mmHg 63%
    09:00 +20°C° 0 mm 1 mps 685 mmHg 56%
    10:00 +22°C° 0 mm 1 mps 685 mmHg 49%
    11:00 +21°C° 0.1 mm 2 mps 685 mmHg 50%
    12:00 +20°C° 0.1 mm 2 mps 685 mmHg 50%
    13:00 +20°C° 0.1 mm 3 mps 685 mmHg 51%
    14:00 +20°C° 0.3 mm 2 mps 685 mmHg 55%
    15:00 +19°C° 0.3 mm 2 mps 684 mmHg 58%
    16:00 +19°C° 0.3 mm 2 mps 684 mmHg 62%
    17:00 +17°C° 0.1 mm 2 mps 684 mmHg 68%
    18:00 +16°C° 0.1 mm 1 mps 684 mmHg 74%
    19:00 +15°C° 0.1 mm 1 mps 684 mmHg 80%
    20:00 +15°C° 0.1 mm 1 mps 684 mmHg 82%
    21:00 +15°C° 0.1 mm 1 mps 684 mmHg 84%
    22:00 +14°C° 0.1 mm 1 mps 684 mmHg 85%
    23:00 +14°C° 0 mm 1 mps 684 mmHg 87%
    Show more